When you browse on this site, cookies collect data to enhance your experience and personalize the content and advertising you see.
Visit our Privacy Policy to learn more. By continuing to use the site, you agree to this use of cookies and data.
  • In Österreich
  • Länderverzeichnis
  • Für 7 Tage
  • Wassertemperatur
  • Satellitenkarten
  • Wetterkarte
  • News
  • Widgets
  • user-avatar
    Anmelden

    Stündliche Wetter Constantine

    Heute, 24 März, Sonntag

    Zeit Temperatur Niederschläge Wind Luftdruck Luftfeuchtigkeit
    00:00 +7°C° 0 mm 0 m/S 713 mmHg 96%
    01:00 +7°C° 0 mm 1 m/S 713 mmHg 96%
    02:00 +7°C° 0 mm 1 m/S 713 mmHg 95%
    03:00 +7°C° 0 mm 1 m/S 713 mmHg 95%
    04:00 +7°C° 0 mm 1 m/S 713 mmHg 95%
    05:00 +7°C° 0 mm 1 m/S 713 mmHg 94%
    06:00 +8°C° 0 mm 1 m/S 713 mmHg 94%
    07:00 +10°C° 0 mm 1 m/S 714 mmHg 86%
    08:00 +12°C° 0 mm 1 m/S 714 mmHg 79%
    09:00 +15°C° 0 mm 1 m/S 715 mmHg 71%
    10:00 +16°C° 0 mm 1 m/S 715 mmHg 65%
    11:00 +18°C° 0 mm 1 m/S 715 mmHg 58%
    12:00 +19°C° 0 mm 1 m/S 715 mmHg 52%
    13:00 +18°C° 0 mm 0 m/S 714 mmHg 50%
    14:00 +18°C° 0 mm 0 m/S 714 mmHg 48%
    15:00 +18°C° 0 mm 0 m/S 714 mmHg 47%
    16:00 +18°C° 0.2 mm 1 m/S 713 mmHg 57%
    17:00 +15°C° 0.2 mm 1 m/S 713 mmHg 67%
    18:00 +14°C° 0.2 mm 1 m/S 712 mmHg 77%
    19:00 +13°C° 0.2 mm 1 m/S 713 mmHg 79%
    20:00 +12°C° 0.2 mm 1 m/S 713 mmHg 81%
    21:00 +11°C° 0.2 mm 0 m/S 713 mmHg 82%
    22:00 +12°C° 0 mm 1 m/S 713 mmHg 80%
    23:00 +12°C° 0 mm 1 m/S 713 mmHg 77%

    Morgen, 25 März, Montag

    Zeit Temperatur Niederschläge Wind Luftdruck Luftfeuchtigkeit
    00:00 +12°C° 0 mm 1 m/S 713 mmHg 74%
    01:00 +11°C° 0 mm 1 m/S 712 mmHg 73%
    02:00 +10°C° 0 mm 2 m/S 712 mmHg 72%
    03:00 +10°C° 0 mm 2 m/S 711 mmHg 71%
    04:00 +10°C° 0 mm 2 m/S 711 mmHg 71%
    05:00 +9°C° 0 mm 2 m/S 711 mmHg 72%
    06:00 +9°C° 0 mm 2 m/S 711 mmHg 73%
    07:00 +12°C° 0 mm 2 m/S 712 mmHg 68%
    08:00 +14°C° 0 mm 2 m/S 712 mmHg 63%
    09:00 +17°C° 0 mm 3 m/S 712 mmHg 58%
    10:00 +18°C° 0.1 mm 3 m/S 712 mmHg 54%
    11:00 +19°C° 0.1 mm 3 m/S 712 mmHg 50%
    12:00 +20°C° 0.1 mm 2 m/S 712 mmHg 46%
    13:00 +19°C° 0.5 mm 3 m/S 712 mmHg 50%
    14:00 +18°C° 0.5 mm 3 m/S 711 mmHg 55%
    15:00 +18°C° 0.5 mm 3 m/S 710 mmHg 59%
    16:00 +16°C° 0.6 mm 3 m/S 710 mmHg 66%
    17:00 +14°C° 0.6 mm 2 m/S 710 mmHg 74%
    18:00 +12°C° 0.6 mm 1 m/S 709 mmHg 82%
    19:00 +12°C° 0.1 mm 1 m/S 709 mmHg 84%
    20:00 +11°C° 0.1 mm 1 m/S 710 mmHg 86%
    21:00 +9°C° 0.1 mm 0 m/S 710 mmHg 89%
    22:00 +9°C° 0 mm 0 m/S 710 mmHg 89%
    23:00 +9°C° 0 mm 0 m/S 709 mmHg 89%

    übermorgen, 26 März, Dienstag

    Zeit Temperatur Niederschläge Wind Luftdruck Luftfeuchtigkeit
    00:00 +8°C° 0 mm 0 m/S 709 mmHg 89%
    01:00 +8°C° 0 mm 0 m/S 709 mmHg 89%
    02:00 +8°C° 0 mm 0 m/S 708 mmHg 89%
    03:00 +7°C° 0 mm 0 m/S 708 mmHg 89%
    04:00 +7°C° 0 mm 0 m/S 708 mmHg 89%
    05:00 +7°C° 0 mm 0 m/S 708 mmHg 89%
    06:00 +8°C° 0 mm 1 m/S 709 mmHg 90%
    07:00 +10°C° 0 mm 1 m/S 709 mmHg 83%
    08:00 +12°C° 0 mm 2 m/S 710 mmHg 77%
    09:00 +13°C° 0 mm 2 m/S 710 mmHg 71%
    10:00 +14°C° 0 mm 2 m/S 710 mmHg 72%
    11:00 +13°C° 0 mm 3 m/S 710 mmHg 72%
    12:00 +13°C° 0 mm 3 m/S 710 mmHg 73%
    13:00 +13°C° 0 mm 3 m/S 710 mmHg 74%
    14:00 +12°C° 0 mm 3 m/S 710 mmHg 75%
    15:00 +12°C° 0 mm 4 m/S 709 mmHg 77%
    16:00 +11°C° 0 mm 3 m/S 709 mmHg 78%
    17:00 +9°C° 0 mm 3 m/S 709 mmHg 79%
    18:00 +8°C° 0 mm 3 m/S 709 mmHg 81%
    19:00 +7°C° 0 mm 2 m/S 710 mmHg 84%
    20:00 +7°C° 0 mm 2 m/S 710 mmHg 87%
    21:00 +7°C° 0 mm 1 m/S 711 mmHg 90%
    22:00 +6°C° 0 mm 1 m/S 711 mmHg 91%
    23:00 +6°C° 0 mm 1 m/S 711 mmHg 91%

    27 März, Mittwoch

    Zeit Temperatur Niederschläge Wind Luftdruck Luftfeuchtigkeit
    00:00 +6°C° 0 mm 1 m/S 711 mmHg 92%
    01:00 +6°C° 0 mm 1 m/S 711 mmHg 89%
    02:00 +6°C° 0 mm 1 m/S 711 mmHg 87%
    03:00 +7°C° 0 mm 1 m/S 711 mmHg 84%
    04:00 +7°C° 0.1 mm 1 m/S 711 mmHg 85%
    05:00 +7°C° 0.1 mm 1 m/S 711 mmHg 86%
    06:00 +7°C° 0.1 mm 1 m/S 711 mmHg 87%
    07:00 +6°C° 0.3 mm 0 m/S 711 mmHg 86%
    08:00 +7°C° 0.3 mm 0 m/S 711 mmHg 85%
    09:00 +7°C° 0.3 mm 0 m/S 712 mmHg 84%
    10:00 +7°C° 0.2 mm 0 m/S 711 mmHg 82%
    11:00 +8°C° 0.2 mm 0 m/S 711 mmHg 80%
    12:00 +8°C° 0.2 mm 0 m/S 711 mmHg 78%
    13:00 +9°C° 0.3 mm 1 m/S 711 mmHg 79%
    14:00 +10°C° 0.3 mm 1 m/S 710 mmHg 79%
    15:00 +10°C° 0.3 mm 1 m/S 710 mmHg 80%
    16:00 +9°C° 0.2 mm 1 m/S 710 mmHg 83%
    17:00 +9°C° 0.2 mm 1 m/S 710 mmHg 86%
    18:00 +8°C° 0.2 mm 1 m/S 710 mmHg 90%
    19:00 +8°C° 0.1 mm 1 m/S 711 mmHg 91%
    20:00 +8°C° 0.1 mm 1 m/S 711 mmHg 91%
    21:00 +8°C° 0.1 mm 1 m/S 711 mmHg 92%
    22:00 +8°C° 0 mm 1 m/S 711 mmHg 93%
    23:00 +8°C° 0 mm 1 m/S 711 mmHg 93%

    28 März, Donnerstag

    Zeit Temperatur Niederschläge Wind Luftdruck Luftfeuchtigkeit
    00:00 +7°C° 0 mm 1 m/S 711 mmHg 94%
    01:00 +7°C° 0 mm 1 m/S 711 mmHg 94%
    02:00 +7°C° 0 mm 1 m/S 711 mmHg 95%
    03:00 +5°C° 0 mm 0 m/S 711 mmHg 95%
    04:00 +5°C° 0 mm 0 m/S 711 mmHg 95%
    05:00 +5°C° 0 mm 0 m/S 711 mmHg 94%
    06:00 +5°C° 0 mm 0 m/S 711 mmHg 94%
    07:00 +8°C° 0 mm 1 m/S 712 mmHg 86%
    08:00 +8°C° 0 mm 2 m/S 712 mmHg 79%
    09:00 +10°C° 0 mm 2 m/S 713 mmHg 72%
    10:00 +11°C° 0.1 mm 3 m/S 713 mmHg 69%
    11:00 +12°C° 0.1 mm 3 m/S 713 mmHg 66%
    12:00 +12°C° 0.1 mm 3 m/S 713 mmHg 64%
    13:00 +12°C° 0.3 mm 3 m/S 713 mmHg 67%
    14:00 +12°C° 0.3 mm 4 m/S 712 mmHg 71%
    15:00 +12°C° 0.3 mm 4 m/S 712 mmHg 75%
    16:00 +11°C° 0.1 mm 3 m/S 712 mmHg 80%
    17:00 +9°C° 0.1 mm 3 m/S 712 mmHg 86%
    18:00 +8°C° 0.1 mm 2 m/S 713 mmHg 91%
    19:00 +8°C° 0 mm 1 m/S 713 mmHg 93%
    20:00 +7°C° 0 mm 1 m/S 714 mmHg 94%
    21:00 +5°C° 0 mm 0 m/S 714 mmHg 95%
    22:00 +5°C° 0 mm 0 m/S 714 mmHg 95%
    23:00 +5°C° 0 mm 0 m/S 714 mmHg 95%

    29 März, Freitag

    Zeit Temperatur Niederschläge Wind Luftdruck Luftfeuchtigkeit
    00:00 +4°C° 0 mm 0 m/S 714 mmHg 95%
    01:00 +4°C° 0 mm 0 m/S 714 mmHg 95%
    02:00 +4°C° 0 mm 0 m/S 713 mmHg 94%
    03:00 +4°C° 0 mm 0 m/S 713 mmHg 93%
    04:00 +4°C° 0 mm 0 m/S 714 mmHg 93%
    05:00 +5°C° 0 mm 1 m/S 714 mmHg 92%
    06:00 +6°C° 0 mm 1 m/S 714 mmHg 91%
    07:00 +8°C° 0 mm 1 m/S 714 mmHg 82%
    08:00 +10°C° 0 mm 1 m/S 715 mmHg 73%
    09:00 +12°C° 0 mm 0 m/S 715 mmHg 64%
    10:00 +14°C° 0 mm 1 m/S 715 mmHg 60%
    11:00 +15°C° 0 mm 1 m/S 715 mmHg 55%
    12:00 +16°C° 0 mm 1 m/S 715 mmHg 50%
    13:00 +16°C° 0.1 mm 1 m/S 714 mmHg 53%
    14:00 +16°C° 0.1 mm 2 m/S 714 mmHg 56%
    15:00 +15°C° 0.1 mm 2 m/S 713 mmHg 59%
    16:00 +14°C° 0.2 mm 2 m/S 713 mmHg 69%
    17:00 +12°C° 0.2 mm 2 m/S 713 mmHg 79%
    18:00 +10°C° 0.2 mm 2 m/S 713 mmHg 89%
    19:00 +9°C° 0.1 mm 2 m/S 713 mmHg 91%
    20:00 +9°C° 0.1 mm 1 m/S 713 mmHg 93%
    21:00 +8°C° 0.1 mm 1 m/S 713 mmHg 95%
    22:00 +8°C° 0 mm 1 m/S 713 mmHg 95%
    23:00 +7°C° 0 mm 1 m/S 713 mmHg 94%
    Mehr zeigen